Overview Statistics Trail Chart Weather Telemetry Raw packets
 

This is the latest recevied weather packets stored in our database for station/object WW6Q. If no packets are shown the sender has not sent any weather packets the latest 10 day(s).

<< 4 5 6 7 8 9 10 >>
Time Temp. Humidity Pressure Rain* Wind** Luminosity Snow
1788596766 20° C 99% 1013.4 hPa 1.27 mm - 0 W/m² -
1788596462 20° C 99% 1013.9 hPa 1.27 mm - 0 W/m² -
1788596161 20° C 99% 1013.6 hPa 0 mm - 0 W/m² -
1788595857 20° C 99% 1013.5 hPa 0 mm - 0 W/m² -
1788595556 20° C 99% 1014 hPa 0 mm - 0 W/m² -
1788595252 20° C 99% 1013.5 hPa 0 mm - 0 W/m² -
1788594951 20° C 99% 1012.2 hPa 0 mm - 0 W/m² -
1788594651 20° C 99% 1012 hPa 0 mm - 0 W/m² -
1788594350 20° C 98% 1012.5 hPa 1.78 mm - 0 W/m² -
1788594047 20° C 98% 1012.5 hPa 1.78 mm - 0 W/m² -
1788593741 20° C 98% 1012.6 hPa 0 mm - 0 W/m² -
1788593437 20° C 98% 1012.8 hPa 1.27 mm - 0 W/m² -
1788593136 20° C 98% 1012.9 hPa 4.32 mm - 0 W/m² -
1788592832 20° C 98% 1013.4 hPa 4.83 mm - 0 W/m² -
1788592528 20° C 98% 1014.1 hPa 4.83 mm - 0 W/m² -
1788592228 20° C 98% 1013.9 hPa 8.89 mm - 0 W/m² -
1788591924 19.44° C 98% 1013.9 hPa 13.72 mm - 0 W/m² -
1788591620 19.44° C 98% 1014.6 hPa 10.16 mm - 0 W/m² -
1788591317 19.44° C 97% 1015 hPa 6.1 mm - 0 W/m² -
1788591013 19.44° C 96% 1014.7 hPa 41.4 mm - 0 W/m² -
1788590707 19.44° C 95% 1014 hPa 52.32 mm - 0 W/m² -
1788590402 20° C 95% 1014.6 hPa 41.4 mm - 0 W/m² -
1788590096 20° C 95% 1014.5 hPa 53.34 mm - 0 W/m² -
1788589793 21.11° C 91% 1014.8 hPa 24.64 mm - 0 W/m² -
1788589492 22.22° C 83% 1014.3 hPa 0 mm - 0 W/m² -

* Rain latest hour (hover to see other rain measurements)
** Current wind speed in m/s (hover to see current wind gust speed)